カタログに戻る

VINDLER 2.3

運用中科学SSO
NORAD 68486·PAYLOAD·🇺🇸 United States

打ち上げ Mar 30, 2026 から Vandenberg Space Force Base

Loading…

次のパス (今後24時間)

TLE

最新Source: Space-Track

元期: Sep 13, 2026, 19:57 UTC

1 68486U 26067BY  26256.83134264  .00001374  00000-0  14038-3 0  9999
2 68486  97.7670 213.7706 0002297  64.1333 296.0122 14.92211588 24948

AllMySatでVINDLER 2.3をリアルタイム追跡

Download on the App Store